Eindhoven, Netherlands

8:03 AM CEST on August 30, 2016 (GMT +0200)
Eindhoven Air Base

Weather History for EHEH - March, 2014

Change the Weather History Date:

Saturday, March 15, 2014

  Actual Average Record
Temperature  
Mean Temperature 49 °F -  
Max Temperature 54 °F 54 °F 66 °F (2012)
Min Temperature 44 °F 37 °F 19 °F (2013)
Degree Days  
Heating Degree Days 16    
Moisture  
Dew Point 42 °F    
Average Humidity 75    
Maximum Humidity 93    
Minimum Humidity 48    
Precipitation  
Precipitation 0.01 in - - ()
Sea Level Pressure  
Sea Level Pressure 30.16 in    
Wind  
Wind Speed 11 mph ()    
Max Wind Speed 18 mph    
Max Gust Speed 26 mph    
Visibility 5.5 miles    
Events Rain    
Averages and records for this station are not official NWS values.
T = Trace of Precipitation, MM = Missing Value Source: Averaged Metar Reports

Daily Weather History Graph

Daily Weather History Graph

Search for Another Location

Airport or City:

Trip Planner

Search our weather history database for the weather conditions in past years. The results will help you decide how hot, cold, wet, or windy it might be!

Date:

Astronomy

Mar. 15, 2014 Rise Set
Actual Time 6:52 AM CET 6:42 PM CET
Civil Twilight 6:19 AM CET 7:16 PM CET
Nautical Twilight 5:40 AM CET 7:55 PM CET
Astronomical Twilight 5:00 AM CET 8:35 PM CET
Moon 5:44 PM CET (3/15) 6:02 AM CET (3/15)
Length of Visible Light 12h 56m
Length of Day
11h 49m
Waxing Gibbous, 98% of the Moon is Illuminated
Mar 15
Waxing Gibbous
Mar 16
Full
Mar 24
Last Quarter
Mar 30
New
Apr 7
First Quarter

Hourly Weather History & Observations

Time (CET) Temp. Windchill Dew Point Humidity Pressure Visibility Wind Dir Wind Speed Gust Speed Precip Events Conditions
12:00 AM 48 °F - 39 °F 62% 30.17 in 3 mi West 8.9 mph - -   Light Haze
12:20 AM 48.2 °F - 39.2 °F 71% 30.15 in - West 10.4 mph - N/A   Haze
12:25 AM 48.2 °F - 39.2 °F 71% 30.15 in - West 10.4 mph - N/A   Haze
12:55 AM 48.2 °F - 41.0 °F 76% 30.15 in 2.5 mi West 10.4 mph - N/A   Haze
1:00 AM 47 °F - 41 °F 73% 30.15 in 2 mi West 11.2 mph - -   Light Haze
1:07 AM 48.2 °F - 41.0 °F 76% 30.12 in 2.2 mi West 11.5 mph - N/A   Haze
1:25 AM 46.4 °F 41.1 °F 41.0 °F 81% 30.15 in - West 11.5 mph - N/A   Haze
1:55 AM 46.4 °F 41.5 °F 42.8 °F 87% 30.15 in 1.8 mi West 10.4 mph - N/A   Scattered Clouds
1:59 AM 46.4 °F 41.5 °F 42.8 °F 87% 30.15 in 1.7 mi West 10.4 mph - N/A   Mostly Cloudy
2:00 AM 47 °F - 43 °F 79% 30.15 in 2 mi West 11.2 mph - -   Mist
2:25 AM 46.4 °F 41.5 °F 42.8 °F 87% 30.15 in 1.7 mi West 10.4 mph - N/A   Partly Cloudy
2:55 AM 46.4 °F 41.5 °F 42.8 °F 87% 30.12 in 1.6 mi West 10.4 mph - N/A   Partly Cloudy
3:00 AM 46 °F - 43 °F 86% 30.15 in 1 mi West 8.9 mph - -   Mist
3:25 AM 46.4 °F 41.9 °F 42.8 °F 87% 30.12 in 1.6 mi West 9.2 mph - N/A   Overcast
3:55 AM 46.4 °F 41.5 °F 42.8 °F 87% 30.12 in 1.7 mi WSW 10.4 mph - N/A   Mostly Cloudy
4:00 AM 46 °F - 43 °F 86% 30.14 in 2 mi West 8.9 mph - -   Mist
4:25 AM 46.4 °F 41.9 °F 42.8 °F 87% 30.12 in - West 9.2 mph - N/A   Overcast
4:41 AM 46.4 °F 41.9 °F 42.8 °F 87% 30.12 in - West 9.2 mph - N/A   Mostly Cloudy
4:55 AM 48.2 °F - 42.8 °F 82% 30.12 in - West 10.4 mph - N/A   Overcast
5:00 AM 48 °F - 43 °F 77% 30.13 in 3 mi West 13.4 mph - -   Mist
5:03 AM 48.2 °F - 42.8 °F 82% 30.12 in 3.1 mi West 12.7 mph - N/A   Mostly Cloudy
5:08 AM 48.2 °F - 42.8 °F 82% 30.12 in 3.1 mi West 11.5 mph - N/A   Mostly Cloudy
5:21 AM 48.2 °F - 42.8 °F 82% 30.12 in 3.7 mi West 12.7 mph - N/A   Mostly Cloudy
5:25 AM 48.2 °F - 42.8 °F 82% 30.12 in 3.7 mi West 12.7 mph - N/A   Mostly Cloudy
5:39 AM 48.2 °F - 42.8 °F 82% 30.12 in 3.7 mi West 12.7 mph - N/A   Mostly Cloudy
5:42 AM 48.2 °F - 42.8 °F 82% 30.12 in 3.7 mi West 12.7 mph 24.2 mph N/A   Mostly Cloudy
5:55 AM 48.2 °F - 42.8 °F 82% 30.12 in 4.3 mi West 11.5 mph - N/A   Mostly Cloudy
6:00 AM 48 °F - 44 °F 80% 30.15 in 3 mi West 13.4 mph - - Rain Light Rain Showers
6:00 AM 48.2 °F - 42.8 °F 82% 30.12 in 3.7 mi West 13.8 mph - N/A Rain Light Rain
6:06 AM 48.2 °F - 44.6 °F 87% 30.12 in 3.7 mi West 13.8 mph - N/A   Mostly Cloudy
6:25 AM 48.2 °F - 44.6 °F 87% 30.12 in - West 12.7 mph - N/A   Drizzle
6:29 AM 48.2 °F - 44.6 °F 87% 30.12 in - West 12.7 mph - N/A   Drizzle
6:49 AM 48.2 °F - 44.6 °F 87% 30.12 in 5.0 mi West 11.5 mph - N/A   Mostly Cloudy
6:55 AM 46.4 °F 40.4 °F 44.6 °F 93% 30.12 in 3.1 mi WNW 13.8 mph - N/A   Mostly Cloudy
6:57 AM 46.4 °F 40.4 °F 44.6 °F 93% 30.12 in - WNW 13.8 mph 25.3 mph N/A Rain Light Rain
7:00 AM 47 °F - 44 °F 86% 30.15 in 2 mi WNW 13.4 mph - - Rain Light Rain
7:03 AM 46.4 °F 40.4 °F 44.6 °F 93% 30.12 in - WNW 13.8 mph 25.3 mph N/A Rain Rain
7:14 AM 46.4 °F 41.5 °F 44.6 °F 93% 30.12 in 3.1 mi WNW 10.4 mph 23.0 mph N/A   Drizzle
7:19 AM 46.4 °F 41.9 °F 44.6 °F 93% 30.12 in 5.0 mi WNW 9.2 mph - N/A   Drizzle
7:25 AM 46.4 °F 41.9 °F 44.6 °F 93% 30.12 in 5.0 mi WNW 9.2 mph - N/A   Light Drizzle
7:31 AM 46.4 °F 41.9 °F 44.6 °F 93% 30.15 in 3.7 mi West 9.2 mph - N/A   Drizzle
7:37 AM 46.4 °F 41.9 °F 44.6 °F 93% 30.15 in 3.7 mi WNW 9.2 mph - N/A   Heavy Drizzle
7:38 AM 46.4 °F 41.5 °F 44.6 °F 93% 30.15 in 4.3 mi West 10.4 mph - N/A   Drizzle
7:50 AM 46.4 °F 41.9 °F 44.6 °F 93% 30.15 in - WNW 9.2 mph - N/A Rain Light Rain
7:55 AM 46.4 °F 42.4 °F 44.6 °F 93% 30.15 in 3.1 mi West 8.1 mph - N/A Rain Rain
8:00 AM 47 °F - 44 °F 86% 30.17 in 3 mi West 8.9 mph - - Rain Heavy Rain
8:03 AM 46.4 °F 42.4 °F 44.6 °F 93% 30.15 in 3.1 mi West 8.1 mph - N/A Rain Light Rain
8:04 AM 46.4 °F 42.4 °F 44.6 °F 93% 30.15 in 3.7 mi West 8.1 mph - N/A Rain Light Rain
8:17 AM 46.4 °F 41.9 °F 44.6 °F 93% 30.15 in 5.0 mi WNW 9.2 mph - N/A   Overcast
8:18 AM 46.4 °F 41.9 °F 44.6 °F 93% 30.15 in 5.6 mi WNW 9.2 mph - N/A   Mostly Cloudy
8:25 AM 46.4 °F 42.4 °F 42.8 °F 87% 30.15 in 5.6 mi WNW 8.1 mph - N/A   Mostly Cloudy
8:32 AM 48.2 °F - 42.8 °F 82% 30.15 in 6.2 mi WNW 8.1 mph - N/A   Overcast
8:36 AM 48.2 °F - 42.8 °F 82% 30.15 in 6.2 mi WNW 8.1 mph - N/A   Mostly Cloudy
8:41 AM 48.2 °F - 42.8 °F 82% 30.15 in 4.3 mi WNW 9.2 mph - N/A   Mostly Cloudy
8:55 AM 48.2 °F - 42.8 °F 82% 30.15 in 4.3 mi WNW 6.9 mph - N/A   Drizzle
9:00 AM 47 °F - 42 °F 79% 30.17 in 7 mi WNW 8.9 mph - - Rain Light Drizzle
9:08 AM 48.2 °F - 42.8 °F 82% 30.15 in 6.2 mi WNW 9.2 mph - N/A   Mostly Cloudy
9:12 AM 48.2 °F - 42.8 °F 82% 30.15 in 6.2 mi WNW 9.2 mph - N/A   Mostly Cloudy
9:25 AM 48.2 °F - 42.8 °F 82% 30.15 in 6.2 mi NW 8.1 mph - N/A   Overcast
9:49 AM 50.0 °F - 42.8 °F 76% 30.18 in 6.2 mi NW 11.5 mph - N/A   Mostly Cloudy
9:55 AM 50.0 °F - 41.0 °F 71% 30.18 in 6.2 mi NW 13.8 mph - N/A   Mostly Cloudy
9:59 AM 50.0 °F - 41.0 °F 71% 30.18 in 6.2 mi NW 15.0 mph - N/A   Mostly Cloudy
10:00 AM 49 °F - 41 °F 64% 30.19 in 11 mi NW 13.4 mph - - Rain Drizzle
10:06 AM 50.0 °F - 41.0 °F 71% 30.18 in 6.2 mi NW 13.8 mph - N/A   Mostly Cloudy
10:07 AM 48.2 °F - 41.0 °F 76% 30.18 in 6.2 mi NW 13.8 mph - N/A   Mostly Cloudy
10:25 AM 50.0 °F - 39.2 °F 66% 30.18 in 6.2 mi NW 15.0 mph 26.5 mph N/A   Scattered Clouds
10:49 AM 50.0 °F - 37.4 °F 62% 30.18 in 6.2 mi NW 17.3 mph - N/A   Scattered Clouds
10:55 AM 50.0 °F - 37.4 °F 62% 30.18 in 6.2 mi NNW 18.4 mph - N/A   Scattered Clouds
11:00 AM 50 °F - 38 °F 53% 30.21 in 12 mi NW 17.9 mph - -   Partly Cloudy
11:25 AM 51.8 °F - 37.4 °F 58% 30.18 in 6.2 mi NW 17.3 mph - N/A   Mostly Cloudy
11:38 AM 51.8 °F - 39.2 °F 62% 30.18 in 6.2 mi NW 17.3 mph - N/A   Mostly Cloudy
11:55 AM 51.8 °F - 37.4 °F 58% 30.21 in 6.2 mi NW 17.3 mph - N/A   Mostly Cloudy
12:00 PM 51 °F - 38 °F 50% 30.22 in 12 mi NW 17.9 mph - -   Partly Cloudy
12:25 PM 51.8 °F - 37.4 °F 58% 30.21 in 6.2 mi NW 16.1 mph - N/A   Scattered Clouds
12:55 PM 51.8 °F - 37.4 °F 58% 30.21 in 6.2 mi NW 13.8 mph - N/A   Mostly Cloudy
1:00 PM 52 °F - 38 °F 48% 30.22 in 12 mi NW 13.4 mph - -   Partly Cloudy
1:25 PM 51.8 °F - 37.4 °F 58% 30.18 in 6.2 mi WNW 13.8 mph - N/A   Overcast
1:55 PM 51.8 °F - 39.2 °F 62% 30.18 in 6.2 mi WNW 11.5 mph - N/A   Mostly Cloudy
2:00 PM 52 °F - 40 °F 54% 30.21 in 12 mi WNW 13.4 mph - -   Scattered Clouds
2:25 PM 51.8 °F - 41.0 °F 67% 30.18 in 6.2 mi NW 16.1 mph - N/A   Mostly Cloudy
2:55 PM 51.8 °F - 41.0 °F 67% 30.18 in 6.2 mi NW 15.0 mph - N/A   Overcast
3:00 PM 53 °F - 40 °F 52% 30.20 in 11 mi NW 15.7 mph - -   Scattered Clouds
3:17 PM 53.6 °F - 41.0 °F 62% 30.18 in 6.2 mi NW 15.0 mph - N/A   Mostly Cloudy
3:25 PM 53.6 °F - 39.2 °F 58% 30.18 in 6.2 mi NW 16.1 mph - N/A   Scattered Clouds
3:55 PM 53.6 °F - 39.2 °F 58% 30.18 in 6.2 mi NW 13.8 mph - N/A   Scattered Clouds
4:00 PM 53 °F - 39 °F 49% 30.21 in 12 mi NW 15.7 mph - -   Scattered Clouds
4:25 PM 53.6 °F - 39.2 °F 58% 30.18 in 6.2 mi WNW 12.7 mph - N/A   Mostly Cloudy
4:55 PM 51.8 °F - 39.2 °F 62% 30.18 in 6.2 mi NW 10.4 mph - N/A   Mostly Cloudy
5:00 PM 52 °F - 40 °F 52% 30.21 in 11 mi NW 11.2 mph - -   Scattered Clouds
5:20 PM 51.8 °F - 41.0 °F 67% 30.18 in 6.2 mi WNW 9.2 mph - N/A   Overcast
5:25 PM 51.8 °F - 41.0 °F 67% 30.18 in 6.2 mi WNW 9.2 mph - N/A   Overcast
5:55 PM 50.0 °F - 39.2 °F 66% 30.18 in 6.2 mi West 13.8 mph - N/A   Mostly Cloudy
6:00 PM 51 °F - 40 °F 55% 30.20 in 9 mi WNW 11.2 mph - -   Scattered Clouds
6:25 PM 50.0 °F - 39.2 °F 66% 30.18 in 6.2 mi West 11.5 mph - N/A   Overcast
6:35 PM 50.0 °F - 39.2 °F 66% 30.18 in 6.2 mi West 9.2 mph - N/A   Scattered Clouds
6:55 PM 48.2 °F - 39.2 °F 71% 30.18 in 6.2 mi West 8.1 mph - N/A   Overcast
7:00 PM 48 °F - 40 °F 65% 30.20 in 8 mi West 6.7 mph - -   Partly Cloudy
7:25 PM 48.2 °F - 39.2 °F 71% 30.18 in 6.2 mi West 6.9 mph - N/A   Partly Cloudy
7:55 PM 48.2 °F - 41.0 °F 76% 30.18 in 6.2 mi West 6.9 mph - N/A   Overcast
7:57 PM 48.2 °F - 41.0 °F 76% 30.18 in 6.2 mi WSW 6.9 mph - N/A   Overcast
8:00 PM 48 °F - 40 °F 67% 30.20 in 8 mi WSW 6.7 mph - -   Overcast
8:25 PM 48.2 °F - 41.0 °F 76% 30.18 in 6.2 mi WSW 9.2 mph - N/A   Overcast
8:55 PM 48.2 °F - 41.0 °F 76% 30.18 in 6.2 mi WSW 8.1 mph - N/A   Overcast
9:00 PM 49 °F - 41 °F 66% 30.19 in 8 mi WSW 8.9 mph - -   Overcast
9:25 PM 48.2 °F - 41.0 °F 76% 30.15 in 6.2 mi SW 10.4 mph - N/A   Overcast
9:33 PM 48.2 °F - 41.0 °F 76% 30.15 in 6.2 mi SW 11.5 mph - N/A   Overcast
9:55 PM 48.2 °F - 41.0 °F 76% 30.15 in 6.2 mi SW 11.5 mph - N/A   Overcast
10:00 PM 49 °F - 41 °F 66% 30.17 in 8 mi SW 13.4 mph - -   Scattered Clouds
10:25 PM 50.0 °F - 41.0 °F 71% 30.15 in 6.2 mi SW 11.5 mph - N/A   Mostly Cloudy
10:27 PM 50.0 °F - 41.0 °F 71% 30.15 in 6.2 mi SW 12.7 mph - N/A   Mostly Cloudy
10:55 PM 50.0 °F - 41.0 °F 71% 30.12 in 6.2 mi SW 12.7 mph - N/A   Overcast
11:00 PM 49 °F - 41 °F 66% 30.14 in 9 mi SW 13.4 mph - -   Overcast
11:25 PM 50.0 °F - 41.0 °F 71% 30.12 in 6.2 mi SW 16.1 mph - N/A   Overcast
11:55 PM 50.0 °F - 41.0 °F 71% 30.09 in 6.2 mi WSW 15.0 mph - N/A   Overcast